Flag for Canada Weather past 2 weeks in Steinbach, Manitoba, Canada

Now
52 °F

Cool.


Feels Like: 52 °F
Forecast: 49 / 62 °F
Wind: 2 mph from North

Location: Winnipeg The Forks

Current Time: Sep 21, 2014 at 11:20:33 AM

Latest Report: Sep 21, 2014 at 10:00 AM


Visibility: N/A

Pressure: 30.19 "Hg

Humidity: 89%

Dew point: 49 °F

Location of SteinbachLocation

Historic Weather in Steinbach — Graph

°F

Steinbach temperature yesterday

Maximum temperature yesterday: 57 °F (at 6:00 PM)
Minimum temperature yesterday: 47 °F (at 7:00 AM)
Average temperature yesterday: 54 °F

Past Weeks' High & Low Weather Summary

 TemperatureHumidityPressure
High76 °F (Sep 7, 5:00 PM)96% (Sep 21, 9:00 AM)30.44 "Hg (Sep 21, 9:00 AM)
Low36 °F (Sep 18, 4:00 AM)24% (Sep 15, 4:00 PM)29.43 "Hg (Sep 19, 12:00 PM)
Average54 °F68%30.00 "Hg
* Reported Sep 6 10:00 AM — Sep 21 10:00 AM, Steinbach, Weather by CustomWeather, © 2014

Note: Actual official high and low records may vary slightly from our data, if they occured in-between our weather recording intervals... More about our weather records

Advertising

Steinbach weather history for previous 24 hours

 ConditionsComfort  
Time TempWeatherWind HumidityBarometerVisibility
10:00 AM
Sep 21
52 °FCool.2 mph89%30.19 "HgN/A
9:00 AM51 °FCool.5 mph96%30.17 "HgN/A
8:00 AM50 °FCool.3 mph95%30.14 "HgN/A
7:00 AM50 °FCool.5 mph94%30.11 "HgN/A
6:00 AM51 °FCool.3 mph93%30.09 "HgN/A
5:00 AM51 °FCool.3 mph92%30.06 "HgN/A
4:00 AM51 °FCool.5 mph90%30.04 "HgN/A
3:00 AM52 °FCool.3 mph88%30.02 "HgN/A
2:00 AM53 °FCool.5 mph88%30.01 "HgN/A
1:00 AM54 °FCool.5 mph86%29.98 "HgN/A
12:00 AM53 °FCool.3 mph87%29.96 "HgN/A
11:00 PM
Sep 20
52 °FCool.5 mph89%29.93 "HgN/A
10:00 PM54 °FCool.3 mph85%29.91 "HgN/A
9:00 PM55 °FCool.2 mph84%29.89 "HgN/A
8:00 PM56 °FCool.3 mph86%29.87 "HgN/A
7:00 PM57 °FCool.1 mph87%29.85 "HgN/A
6:00 PM57 °FCool.2 mph81%29.83 "HgN/A
5:00 PM57 °FCool.2 mph86%29.81 "HgN/A
4:00 PM55 °FCool.6 mph88%29.79 "HgN/A
3:00 PM55 °FCool.7 mph92%29.76 "HgN/A
2:00 PM54 °FCool.2 mph94%29.74 "HgN/A
1:00 PM54 °FCool.2 mph93%29.72 "HgN/A
12:00 PM54 °FCool.5 mph87%29.72 "HgN/A
Weather by CustomWeather, © 2014

See weather overviewHow to use our weather pages